DECAYED

STARLINK-3603, 51816 (Decayed)

Orbit data source: Space-Track

STARLINK-3603, 51816 was a payload satellite owned by SpaceX/Seattle (US) in LEO that was launched on Fri, 25 Feb 2022 UTC via an FALCON 9 launch vehicle from the Air Force Western Test Range (AFWTR). Payload-class satellites include a variety of spacecraft equipped with specific instruments for various scientific and technological missions. These include communications satellites like Starlink; space stations such as the ISS; scientific satellites like the Hubble; Earth observation satellites from companies like Planet Labs, Umbra, and HawkEye 360; GPS; miniature CubeSats for education and research; and military/defense satellites.

Not visible in the next 10 days
Identifier
51816, 2022-017BA
Orbit
Decayed
Country
Flag of USUS
Related business
Manufacturer
SpaceX/Seattle
Mission
Decayed Commercial Communications
Bus & Motor
STARLINK, Unknown motor
Mass
297 kg wet, ~275 kg dry
Launch date (UTC)
2022-02-25 (4 years ago)
Launch vehicle
FALCON 9
Launch site
Air Force Western Test Range (AFWTR)
Object type
Payload
Rocket body
Debris
Shape & HBR
Box + 1 Pan, 10.1 m
Radar Cross Section
13.562 m², Large (>1 m²)

Expand to show TLE details & history
Last TLE update: 2 months ago

TLE from 2 months ago
0 STARLINK-3603
1 51816U 22017BA  26110.17249344  .05695219  12130-4  10475-2 0  9994
2 51816  53.1993  97.2968 0000902 330.8384  29.2611 16.31574393231036
Epoch: 2026-04-20T04:08Z
TLE epoch observation values (Epoch: 2026-04-20T04:08:23.433Z)
Latitude
0.00003°
Longitude
-173.06726°
Altitude
188.739 km
Speed
7.795 km/s
True Right ascension
06h 29m 11s
True Declination
0° 00' 00"
Sunlit
Object was in daylight at epoch
Visualization orbit readout
Latitude
Unknown
Longitude
Unknown
Altitude
Unknown
Speed
Unknown
Apparent Right ascension
Unknown
Apparent Declination
Unknown
Sunlit
N/A
Visualization observer readout
Local Sidereal Time
21:33:45
Azimuth
Unknown
Elevation
Unknown
Doppler factor
Unknown
Orbital elements
Apogee altitude
189.165 km
Perigee altitude
187.981 km
Semi-major axis
6,566.71 km
Eccentricity
0.00009
Inclination
53.1993°
RAAN
97.2968°
Arg. of periapsis
330.8384°
True anomaly
29.26615°
Mean anomaly
29.2611°
Eccentric anomaly
29.26363°
Mean motion
4.0787 °/min
Orbital period
88.26 mins
BSTAR
0.0010475
Loading maneuver chart data...
Computing Atmospheric mass density...
Loading historical data...
Loading historical data...
Loading historical data...
Loading historical data...
Loading historical data...
Loading historical data...
Loading historical data...

Documentation

Showing up to 5 results
|